When you browse on this site, cookies collect data to enhance your experience and personalize the content and advertising you see.
Visit our Privacy Policy to learn more. By continuing to use the site, you agree to this use of cookies and data.

Hourly Weather Swansea

Today, 5 August, Wednesday

Time Temperature Precipitation Wind Pressure Humidity
00:00 +16°C° 0 mm 8 mps 756 mmHg 95%
01:00 +16°C° 0 mm 8 mps 756 mmHg 95%
02:00 +16°C° 0 mm 7 mps 756 mmHg 95%
03:00 +16°C° 0 mm 7 mps 756 mmHg 95%
04:00 +16°C° 0 mm 7 mps 756 mmHg 95%
05:00 +16°C° 0 mm 7 mps 755 mmHg 95%
06:00 +16°C° 0 mm 6 mps 755 mmHg 96%
07:00 +17°C° 0 mm 6 mps 755 mmHg 93%
08:00 +17°C° 0 mm 6 mps 755 mmHg 91%
09:00 +18°C° 0 mm 7 mps 756 mmHg 89%
10:00 +20°C° 0.1 mm 7 mps 755 mmHg 85%
11:00 +21°C° 0.1 mm 7 mps 755 mmHg 81%
12:00 +22°C° 0.1 mm 8 mps 755 mmHg 77%
13:00 +21°C° 0.5 mm 8 mps 755 mmHg 82%
14:00 +20°C° 0.5 mm 8 mps 755 mmHg 87%
15:00 +18°C° 0.5 mm 8 mps 755 mmHg 91%
16:00 +18°C° 0.3 mm 7 mps 755 mmHg 93%
17:00 +18°C° 0.3 mm 7 mps 755 mmHg 95%
18:00 +19°C° 0.3 mm 6 mps 755 mmHg 97%
19:00 +19°C° 0.3 mm 6 mps 756 mmHg 97%
20:00 +19°C° 0.3 mm 5 mps 756 mmHg 98%
21:00 +19°C° 0.3 mm 5 mps 757 mmHg 98%
22:00 +18°C° 0.2 mm 4 mps 757 mmHg 98%
23:00 +18°C° 0.2 mm 3 mps 757 mmHg 98%

Tomorrow, 6 August, Thursday

Time Temperature Precipitation Wind Pressure Humidity
00:00 +18°C° 0.2 mm 3 mps 757 mmHg 98%
01:00 +18°C° 0.1 mm 3 mps 757 mmHg 98%
02:00 +18°C° 0.1 mm 2 mps 758 mmHg 98%
03:00 +18°C° 0.1 mm 2 mps 758 mmHg 97%
04:00 +18°C° 0 mm 2 mps 758 mmHg 97%
05:00 +18°C° 0 mm 2 mps 758 mmHg 97%
06:00 +19°C° 0 mm 1 mps 758 mmHg 96%
07:00 +18°C° 0 mm 2 mps 759 mmHg 94%
08:00 +19°C° 0 mm 2 mps 759 mmHg 92%
09:00 +20°C° 0 mm 2 mps 759 mmHg 90%
10:00 +20°C° 0.1 mm 2 mps 759 mmHg 88%
11:00 +21°C° 0.1 mm 3 mps 759 mmHg 87%
12:00 +22°C° 0.1 mm 3 mps 759 mmHg 85%
13:00 +23°C° 0.1 mm 2 mps 760 mmHg 84%
14:00 +23°C° 0.1 mm 2 mps 760 mmHg 83%
15:00 +23°C° 0.1 mm 2 mps 760 mmHg 81%
16:00 +23°C° 0 mm 2 mps 760 mmHg 82%
17:00 +21°C° 0 mm 2 mps 760 mmHg 83%
18:00 +22°C° 0 mm 1 mps 760 mmHg 84%
19:00 +21°C° 0 mm 1 mps 760 mmHg 86%
20:00 +20°C° 0 mm 1 mps 760 mmHg 88%
21:00 +16°C° 0 mm 0 mps 761 mmHg 90%
22:00 +18°C° 0 mm 1 mps 761 mmHg 91%
23:00 +18°C° 0 mm 1 mps 761 mmHg 91%

Day after tomorrow, 7 August, Friday

Time Temperature Precipitation Wind Pressure Humidity
00:00 +16°C° 0 mm 2 mps 761 mmHg 92%
01:00 +16°C° 0 mm 2 mps 761 mmHg 93%
02:00 +16°C° 0 mm 2 mps 761 mmHg 94%
03:00 +16°C° 0 mm 2 mps 761 mmHg 95%
04:00 +17°C° 0 mm 2 mps 761 mmHg 95%
05:00 +17°C° 0 mm 2 mps 761 mmHg 95%
06:00 +18°C° 0 mm 3 mps 761 mmHg 96%
07:00 +19°C° 0 mm 3 mps 761 mmHg 91%
08:00 +21°C° 0 mm 2 mps 761 mmHg 87%
09:00 +23°C° 0 mm 2 mps 761 mmHg 83%
10:00 +24°C° 0 mm 2 mps 761 mmHg 78%
11:00 +26°C° 0 mm 2 mps 761 mmHg 73%
12:00 +27°C° 0 mm 2 mps 761 mmHg 68%
13:00 +27°C° 0 mm 2 mps 761 mmHg 67%
14:00 +27°C° 0 mm 2 mps 760 mmHg 66%
15:00 +28°C° 0 mm 2 mps 760 mmHg 65%
16:00 +27°C° 0 mm 2 mps 760 mmHg 70%
17:00 +26°C° 0 mm 3 mps 760 mmHg 75%
18:00 +25°C° 0 mm 3 mps 760 mmHg 80%
19:00 +24°C° 0 mm 3 mps 760 mmHg 83%
20:00 +21°C° 0 mm 2 mps 761 mmHg 86%
21:00 +19°C° 0 mm 2 mps 761 mmHg 90%
22:00 +19°C° 0 mm 2 mps 761 mmHg 91%
23:00 +19°C° 0 mm 3 mps 762 mmHg 92%

8 August, Saturday

Time Temperature Precipitation Wind Pressure Humidity
00:00 +19°C° 0 mm 3 mps 762 mmHg 93%
01:00 +18°C° 0 mm 4 mps 762 mmHg 92%
02:00 +17°C° 0 mm 4 mps 762 mmHg 92%
03:00 +15°C° 0 mm 5 mps 762 mmHg 92%
04:00 +15°C° 0 mm 5 mps 763 mmHg 92%
05:00 +14°C° 0 mm 5 mps 763 mmHg 92%
06:00 +14°C° 0 mm 5 mps 764 mmHg 92%
07:00 +15°C° 0 mm 5 mps 764 mmHg 87%
08:00 +16°C° 0 mm 6 mps 764 mmHg 82%
09:00 +17°C° 0 mm 6 mps 764 mmHg 77%
10:00 +19°C° 0 mm 6 mps 765 mmHg 75%
11:00 +19°C° 0 mm 6 mps 765 mmHg 72%
12:00 +20°C° 0 mm 6 mps 765 mmHg 70%
13:00 +20°C° 0 mm 6 mps 765 mmHg 71%
14:00 +21°C° 0 mm 6 mps 765 mmHg 71%
15:00 +21°C° 0 mm 6 mps 765 mmHg 72%
16:00 +20°C° 0 mm 6 mps 766 mmHg 74%
17:00 +20°C° 0 mm 6 mps 766 mmHg 76%
18:00 +19°C° 0 mm 5 mps 766 mmHg 78%
19:00 +16°C° 0 mm 5 mps 766 mmHg 81%
20:00 +14°C° 0 mm 4 mps 766 mmHg 84%
21:00 +13°C° 0 mm 4 mps 767 mmHg 87%
22:00 +12°C° 0 mm 4 mps 767 mmHg 86%
23:00 +11°C° 0 mm 4 mps 767 mmHg 85%

9 August, Sunday

Time Temperature Precipitation Wind Pressure Humidity
00:00 +11°C° 0 mm 3 mps 767 mmHg 83%
01:00 +11°C° 0 mm 3 mps 767 mmHg 85%
02:00 +11°C° 0 mm 3 mps 766 mmHg 86%
03:00 +11°C° 0 mm 3 mps 766 mmHg 87%
04:00 +11°C° 0 mm 3 mps 766 mmHg 88%
05:00 +12°C° 0 mm 4 mps 766 mmHg 89%
06:00 +12°C° 0 mm 4 mps 767 mmHg 89%
07:00 +14°C° 0 mm 4 mps 766 mmHg 84%
08:00 +17°C° 0 mm 4 mps 766 mmHg 79%
09:00 +19°C° 0 mm 5 mps 766 mmHg 75%
10:00 +19°C° 0 mm 5 mps 766 mmHg 72%
11:00 +20°C° 0 mm 4 mps 766 mmHg 70%
12:00 +21°C° 0 mm 4 mps 765 mmHg 67%
13:00 +22°C° 0 mm 4 mps 765 mmHg 66%
14:00 +22°C° 0 mm 4 mps 765 mmHg 65%
15:00 +22°C° 0 mm 5 mps 764 mmHg 64%
16:00 +22°C° 0 mm 5 mps 764 mmHg 68%
17:00 +21°C° 0 mm 5 mps 764 mmHg 71%
18:00 +20°C° 0 mm 4 mps 764 mmHg 74%
19:00 +19°C° 0 mm 5 mps 764 mmHg 75%
20:00 +16°C° 0 mm 5 mps 764 mmHg 75%
21:00 +15°C° 0 mm 5 mps 764 mmHg 76%
22:00 +14°C° 0 mm 6 mps 764 mmHg 76%
23:00 +14°C° 0 mm 6 mps 764 mmHg 76%

10 August, Monday

Time Temperature Precipitation Wind Pressure Humidity
00:00 +14°C° 0 mm 6 mps 764 mmHg 75%
01:00 +13°C° 0 mm 6 mps 764 mmHg 76%
02:00 +13°C° 0 mm 6 mps 764 mmHg 76%
03:00 +13°C° 0 mm 6 mps 763 mmHg 76%
04:00 +13°C° 0 mm 5 mps 763 mmHg 78%
05:00 +13°C° 0 mm 5 mps 763 mmHg 80%
06:00 +13°C° 0 mm 5 mps 763 mmHg 82%
07:00 +14°C° 0 mm 5 mps 763 mmHg 79%
08:00 +15°C° 0 mm 5 mps 763 mmHg 76%
09:00 +16°C° 0 mm 5 mps 763 mmHg 73%
10:00 +17°C° 0 mm 5 mps 763 mmHg 70%
11:00 +19°C° 0 mm 5 mps 763 mmHg 67%
12:00 +21°C° 0 mm 5 mps 763 mmHg 65%
13:00 +21°C° 0 mm 5 mps 762 mmHg 65%
14:00 +22°C° 0 mm 4 mps 762 mmHg 65%
15:00 +22°C° 0 mm 4 mps 762 mmHg 66%
16:00 +22°C° 0 mm 4 mps 762 mmHg 68%
17:00 +21°C° 0 mm 5 mps 761 mmHg 71%
18:00 +21°C° 0 mm 5 mps 761 mmHg 74%
19:00 +19°C° 0 mm 5 mps 761 mmHg 75%
20:00 +17°C° 0 mm 5 mps 761 mmHg 76%
21:00 +16°C° 0 mm 5 mps 761 mmHg 77%
22:00 +16°C° 0 mm 5 mps 762 mmHg 75%
23:00 +15°C° 0 mm 5 mps 762 mmHg 74%
Show more